Waarnemingen

Advertentie
Mijn weer
Tain Range, Groot Brittannië (3062): temperatuur & dauwpunt: 09.12.2017 23:00:00 - 15.12.2017 23:00:00 (GMT)Tain Range, Groot Brittannië (3062): temperatuur -20cm & temperatuur -100cm: 09.12.2017 23:00:00 - 15.12.2017 23:00:00 (GMT)Tain Range, Groot Brittannië (3062): windsnelheid: 09.12.2017 23:00:00 - 15.12.2017 23:00:00 (GMT)Tain Range, Groot Brittannië (3062): windrichting: 09.12.2017 23:00:00 - 15.12.2017 23:00:00 (GMT)Tain Range, Groot Brittannië (3062): luchtdruk: 09.12.2017 23:00:00 - 15.12.2017 23:00:00 (GMT)Tain Range, Groot Brittannië (3062): zicht: 09.12.2017 23:00:00 - 15.12.2017 23:00:00 (GMT)Tain Range, Groot Brittannië (3062): neerslag: 09.12.2017 23:00:00 - 15.12.2017 23:00:00 (GMT)
Datum & Tijd tt [°C] td [°C] tt -20cm [°C] tt -100cm [°C] ff [km/u] ff [kn] dd ppp [hPa] vv [km] rr [mm]
15.12.2017 23:00:00 - - - - - - - - - -
15.12.2017 22:00:00 - - - - - - - - - -
15.12.2017 21:00:00 - - - - - - - - - -
15.12.2017 20:00:00 - - - - - - - - - -
15.12.2017 19:00:00 - - - - - - - - - -
15.12.2017 18:00:00 - - - - - - - - - -
15.12.2017 17:00:00 - - - - - - - - - -
15.12.2017 16:00:00 - - - - - - - - - -
15.12.2017 15:00:00 - - - - - - - - - -
15.12.2017 14:00:00 - - - - - - - - - -
15.12.2017 13:00:00 - - - - - - - - - -
15.12.2017 12:00:00 - - - - - - - - - -
15.12.2017 11:00:00 - - - - - - - - - -
15.12.2017 10:00:00 - - - - - - - - - -
15.12.2017 09:00:00 - - - - - - - - - -
15.12.2017 08:00:00 - - - - - - - - - -
15.12.2017 07:00:00 - - - - - - - - - -
15.12.2017 06:00:00 - - - - - - - - - -
15.12.2017 05:00:00 - - - - - - - - - -
15.12.2017 04:00:00 - - - - - - - - - -
15.12.2017 03:00:00 - - - - - - - - - -
15.12.2017 02:00:00 - - - - - - - - - -
15.12.2017 01:00:00 - - - - - - - - - -
15.12.2017 00:00:00 - - - - - - - - - -
14.12.2017 23:00:00 - - - - - - - - - -
14.12.2017 22:00:00 - - - - - - - - - -
14.12.2017 21:00:00 - - - - - - - - - -
14.12.2017 20:00:00 - - - - - - - - - -
14.12.2017 19:00:00 - - - - - - - - - -
14.12.2017 18:00:00 - - - - - - - - - -
14.12.2017 17:00:00 - - - - - - - - - -
14.12.2017 16:00:00 - - - - - - - - - -
14.12.2017 15:00:00 - - - - - - - - - -
14.12.2017 14:00:00 - - - - - - - - - -
14.12.2017 13:00:00 - - - - - - - - - -
14.12.2017 12:00:00 - - - - - - - - - -
14.12.2017 11:00:00 - - - - - - - - - -
14.12.2017 10:00:00 - - - - - - - - - -
14.12.2017 09:00:00 - - - - - - - - - -
14.12.2017 08:00:00 - - - - - - - - - -
14.12.2017 07:00:00 - - - - - - - - - -
14.12.2017 06:00:00 - - - - - - - - - -
14.12.2017 05:00:00 - - - - - - - - - -
14.12.2017 04:00:00 - - - - - - - - - -
14.12.2017 03:00:00 - - - - - - - - - -
14.12.2017 02:00:00 - - - - - - - - - -
14.12.2017 01:00:00 - - - - - - - - - -
14.12.2017 00:00:00 - - - - - - - - - -
13.12.2017 23:00:00 - - - - - - - - - -
13.12.2017 22:00:00 - - - - - - - - - -
13.12.2017 21:00:00 - - - - - - - - - -
13.12.2017 20:00:00 - - - - - - - - - -
13.12.2017 19:00:00 - - - - - - - - - -
13.12.2017 18:00:00 - - - - - - - - - -
13.12.2017 17:00:00 - - - - - - - - - -
13.12.2017 16:00:00 - - - - - - - - - -
13.12.2017 15:00:00 - - - - - - - - - -
13.12.2017 14:00:00 - - - - - - - - - -
13.12.2017 13:00:00 - - - - - - - - - -
13.12.2017 12:00:00 - - - - - - - - - -
13.12.2017 11:00:00 - - - - - - - - - -
13.12.2017 10:00:00 - - - - - - - - - -
13.12.2017 09:00:00 - - - - - - - - - -
13.12.2017 08:00:00 - - - - - - - - - -
13.12.2017 07:00:00 - - - - - - - - - -
13.12.2017 06:00:00 - - - - - - - - - -
13.12.2017 05:00:00 - - - - - - - - - -
13.12.2017 04:00:00 - - - - - - - - - -
13.12.2017 03:00:00 - - - - - - - - - -
13.12.2017 02:00:00 - - - - - - - - - -
13.12.2017 01:00:00 - - - - - - - - - -
13.12.2017 00:00:00 - - - - - - - - - -
12.12.2017 23:00:00 - - - - - - - - - -
12.12.2017 22:00:00 - - - - - - - - - -
12.12.2017 21:00:00 - - - - - - - - - -
12.12.2017 20:00:00 - - - - - - - - - -
12.12.2017 19:00:00 - - - - - - - - - -
12.12.2017 18:00:00 - - - - - - - - - -
12.12.2017 17:00:00 - - - - - - - - - -
12.12.2017 16:00:00 - - - - - - - - - -
12.12.2017 15:00:00 0,7 -0,3 - - 8 4 Z 996,1 45 0,0
12.12.2017 14:00:00 0,4 -0,9 - - 8 4 Z 997,2 45 0,0
12.12.2017 13:00:00 0,5 -1,2 - - 8 4 Z 998,3 50 0,0
12.12.2017 12:00:00 1,1 -0,7 - - 11 6 ZW 999,2 35 0,0
12.12.2017 11:00:00 0,2 -1,0 - - 13 7 ZW 999,8 45 0,0
12.12.2017 10:00:00 -0,7 -1,7 - - 16 9 ZW 1000,1 45 0,0
12.12.2017 09:00:00 -2,3 -3,1 4,2 6,0 9 5 ZW 1000,4 50 0,0
12.12.2017 08:00:00 -2,4 -3,1 - - 13 7 ZZW 1000,6 40 0,0
12.12.2017 07:00:00 -2,2 -3,3 - - 8 4 ZW 1000,6 45 0,0
12.12.2017 06:00:00 -0,8 -2,2 - - 9 5 Z 1000,8 30 0,0
12.12.2017 05:00:00 -0,6 -1,7 - - 13 7 WZW 1000,7 40 0,0
12.12.2017 04:00:00 -0,9 -2,6 - - 11 6 WZW 1000,4 35 0,0
12.12.2017 03:00:00 2,0 0,0 - - 18 10 W 1000,6 40 0,0
12.12.2017 02:00:00 1,3 -0,3 - - 24 13 W 1000,5 45 0,0
12.12.2017 01:00:00 0,5 -0,8 - - 22 12 WNW 1000,1 50 0,0
12.12.2017 00:00:00 1,1 -0,2 - - 22 12 WNW 999,9 50 0,0
11.12.2017 23:00:00 0,2 -0,7 - - 13 7 NW 999,2 50 0,0
11.12.2017 22:00:00 1,3 -0,1 - - 18 10 WNW 999,1 40 0,0
11.12.2017 21:00:00 1,5 0,2 - - 24 13 W 999,2 45 0,0
11.12.2017 20:00:00 1,6 0,6 - - 24 13 WNW 998,9 50 0,0
11.12.2017 19:00:00 2,1 1,0 - - 21 11 W 998,1 50 0,0
11.12.2017 18:00:00 1,8 0,8 - - 18 10 W 997,0 50 0,0
11.12.2017 17:00:00 2,6 1,6 - - 22 12 NW 996,2 7 0,0
11.12.2017 16:00:00 2,4 0,9 - - 18 10 WNW 995,4 40 0,0
11.12.2017 15:00:00 2,9 0,6 - - 21 11 NW 994,3 50 0,0
11.12.2017 14:00:00 2,9 1,0 - - 22 12 NW 993,4 50 0,0
11.12.2017 13:00:00 3,0 1,0 - - 13 7 WNW 992,8 45 0,2
11.12.2017 12:00:00 2,9 1,2 - - 16 9 WNW 991,9 50 0,0
11.12.2017 11:00:00 2,8 1,5 - - 15 8 NNW 991,3 40 0,0
11.12.2017 10:00:00 2,3 1,2 - - 21 11 WNW 990,3 40 0,0
11.12.2017 09:00:00 2,3 1,4 4,4 6,2 28 15 WNW 988,8 50 0,2
11.12.2017 08:00:00 2,4 1,3 - - 26 14 WNW 988,7 21 0,2
11.12.2017 07:00:00 2,1 1,1 - - 24 13 WNW 987,3 50 0,2
11.12.2017 06:00:00 2,0 1,2 - - 22 12 WNW 986,6 50 0,0
11.12.2017 05:00:00 1,9 1,0 - - 21 11 W 986,2 50 0,0
11.12.2017 04:00:00 1,5 1,0 - - 11 6 W 985,6 50 0,0
11.12.2017 03:00:00 1,5 0,7 - - 18 10 W 984,9 24 0,0
11.12.2017 02:00:00 1,3 0,4 - - 21 11 W 984,1 50 0,0
11.12.2017 01:00:00 1,6 0,4 - - 15 8 W 983,2 50 0,0
11.12.2017 00:00:00 0,9 -0,1 - - 16 9 W 982,9 50 0,0
10.12.2017 23:00:00 -1,4 -2,4 - - 11 6 ZZW 982,3 40 0,0
10.12.2017 22:00:00 -0,6 -2,2 - - 9 5 ZW 981,8 40 0,0
10.12.2017 21:00:00 0,6 -0,7 - - 16 9 ZW 981,2 50 0,0
10.12.2017 20:00:00 0,2 -1,2 - - 16 9 ZW 980,8 18 0,0
10.12.2017 19:00:00 -0,5 -1,9 - - 18 10 ZW 980,7 50 0,0
10.12.2017 18:00:00 -1,6 -2,9 - - 16 9 ZW 980,6 50 0,0
10.12.2017 17:00:00 -1,5 -2,7 - - 18 10 ZW 980,8 50 0,0
10.12.2017 16:00:00 -1,7 -2,9 - - 21 11 ZZW 980,7 45 0,0
10.12.2017 15:00:00 -1,6 -3,4 - - 16 9 ZZW 981,1 50 0,0
10.12.2017 14:00:00 -1,0 -3,1 - - 8 4 ZZW 981,5 45 0,0
10.12.2017 13:00:00 -0,9 -2,9 - - 5 3 ZW 982,2 45 0,0
10.12.2017 12:00:00 -2,2 -3,4 - - 13 7 W 983,0 50 0,0
10.12.2017 11:00:00 -3,4 -4,2 - - 13 7 ZW 983,8 45 0,0
10.12.2017 10:00:00 -5,1 -6,0 - - 9 5 ZW 984,6 50 0,0
10.12.2017 09:00:00 -5,4 -5,9 5,0 6,5 8 4 WZW 985,4 30 0,0
10.12.2017 08:00:00 -6,6 -7,3 - - 8 4 ZZW 986,2 40 0,0
10.12.2017 07:00:00 -5,9 -6,6 - - 11 6 Z 987,3 40 0,0
10.12.2017 06:00:00 -6,0 -6,5 - - 9 5 W 988,2 50 0,0
10.12.2017 05:00:00 -5,5 -6,1 - - 8 4 ZZW 989,5 35 0,0
10.12.2017 04:00:00 -5,3 -6,0 - - 11 6 ZZW 991,1 50 0,0
10.12.2017 03:00:00 -4,5 -5,1 - - 13 7 ZW 992,7 18 0,0
10.12.2017 02:00:00 -3,8 -4,4 - - 9 5 W 994,3 50 0,0
10.12.2017 01:00:00 -3,3 -3,9 - - 13 7 W 995,6 40 0,0
10.12.2017 00:00:00 -3,6 -4,1 - - 8 4 ZW 996,9 45 0,0
09.12.2017 23:00:00 -4,1 -4,9 - - 9 5 WZW 998,2 50 0,0

tt = temperatuur
td = dauwpunt
tt -20cm = temperatuur -20cm
tt -100cm = temperatuur -100cm
ff = windsnelheid
dd = windrichting
ppp = luchtdruk
vv = zicht
rr = neerslag

Weerstations in de omgeving